Vorticity
nan nan nan nan nan nan nan nan nan nan nan nan nan nan nan nan nan nan nan nan nan nan nan nan nan nan nan nan nan nan nan nan nan nan nan nan nan nan nan nan nan nan nan nan nan nan nan nan nan nan nan nan nan nan nan nan nan nan nan nan nan nan nan nan nan nan nan nan nan nan nan nan nan nan nan nan nan nan nan nan nan nan nan nan nan nan
nan 8 5 6 10 11 9 7 7 6 6 8 8 8 8 9 9 9 7 7 10 11 10 9 8 7 3 -4 -7 -2 5 8 10 11 11 11 11 10 9 9 8 8 8 9 10 11 12 13 13 13 13 12 11 10 8 7 7 7 7 8 8 8 9 9 10 10 11 11 12 13 13 14 14 14 14 13 13 13 13 12 11 10 10 9 9 nan
nan 8 8 8 9 10 9 9 8 6 7 8 8 9 10 10 9 8 7 7 9 10 10 9 9 8 5 -2 -7 -2 4 8 11 12 12 11 10 9 9 8 8 8 9 10 12 13 13 13 13 12 11 10 9 8 8 8 8 8 9 9 9 10 10 10 10 11 11 11 12 12 13 14 14 14 14 13 12 12 11 10 9 9 9 8 8 nan
nan 8 9 10 10 10 9 9 8 7 7 9 9 11 11 10 9 8 7 7 8 9 9 10 9 8 7 2 -4 -5 2 9 12 12 12 11 10 8 8 8 8 9 11 12 13 14 13 13 11 10 9 8 8 8 9 9 10 10 10 11 11 11 11 11 11 11 11 11 11 12 12 13 13 13 12 11 10 10 9 9 9 9 8 8 8 nan
nan 9 10 10 10 10 11 10 9 8 9 10 10 11 11 9 8 7 7 7 8 9 10 10 9 7 7 3 -3 -5 2 9 11 11 10 9 9 8 8 9 10 12 13 14 14 13 12 11 10 9 8 8 9 9 10 10 11 11 11 11 12 12 11 11 11 11 11 11 11 11 11 11 11 11 10 10 9 9 9 8 8 9 9 8 8 nan
nan 11 11 10 10 10 11 10 9 9 10 10 10 11 10 9 9 8 7 8 10 11 11 9 7 6 6 2 -3 -1 5 8 8 9 8 8 7 8 9 11 12 14 14 14 13 11 10 9 8 8 8 9 9 10 10 11 11 12 12 12 12 12 12 11 11 11 11 11 11 11 10 10 9 9 9 8 8 8 8 9 9 9 9 9 9 nan
nan 11 11 10 10 10 10 8 8 10 11 10 10 10 10 9 9 8 8 9 11 11 10 8 7 6 6 3 2 5 7 6 6 6 5 6 8 9 10 12 13 14 13 11 10 9 8 8 8 8 9 10 10 10 11 11 12 12 12 12 12 12 12 12 12 11 11 11 10 10 10 9 9 8 8 8 8 9 9 9 9 10 10 10 10 nan
nan 10 10 9 10 10 10 8 8 9 10 10 9 10 9 9 9 8 9 11 11 10 9 8 8 8 8 7 6 8 8 7 6 4 3 5 7 8 9 11 12 11 10 9 8 7 6 7 8 9 10 11 11 11 11 11 11 11 11 11 11 11 12 12 11 11 11 11 10 10 9 9 9 9 9 9 9 9 9 10 10 10 10 10 11 nan
nan 9 9 9 9 9 10 9 9 8 9 10 9 8 9 8 9 9 9 9 9 9 8 8 9 9 9 9 7 5 5 7 7 5 4 5 3 2 5 9 9 8 6 6 6 6 6 7 8 10 10 11 11 11 11 11 11 10 10 10 11 11 11 11 11 11 11 10 10 10 10 10 10 10 10 10 10 10 10 10 10 11 11 11 10 nan
nan 9 9 9 9 9 8 9 9 9 9 9 9 9 8 6 6 7 9 10 9 9 8 8 8 9 11 11 8 5 3 3 2 3 5 5 3 4 8 10 7 3 3 6 5 5 6 7 8 10 10 10 10 10 10 10 10 10 9 10 10 11 11 11 11 11 11 10 10 10 10 10 11 11 10 10 11 11 11 11 10 10 10 10 10 nan
nan 10 10 10 10 9 8 9 9 9 7 8 10 11 9 6 4 4 7 10 10 10 9 8 9 10 11 11 9 7 7 6 4 3 4 5 7 11 14 13 10 6 7 8 7 6 5 6 8 9 9 9 9 9 10 10 9 9 9 10 10 10 10 10 10 10 10 10 10 10 10 10 10 11 11 10 10 11 10 10 10 10 10 10 10 nan
nan 11 10 10 9 9 9 10 10 10 8 8 10 11 10 7 6 5 7 8 9 9 10 11 12 12 12 11 9 8 7 8 8 8 8 9 11 14 15 14 12 11 12 11 9 6 4 6 8 9 9 8 8 8 9 9 8 8 9 9 10 10 10 10 10 10 10 10 10 10 10 10 10 10 10 10 10 10 10 10 10 10 10 10 10 nan
nan 10 9 9 9 9 9 10 11 10 9 8 8 9 9 8 8 9 8 8 8 9 11 12 13 13 14 12 8 6 6 8 9 10 10 11 12 13 13 12 13 13 13 13 10 2 -1 6 10 10 8 8 7 7 9 9 8 9 9 9 10 10 10 10 10 10 10 10 10 10 10 10 10 10 10 10 10 10 10 10 10 10 10 10 10 nan
nan 10 10 10 9 9 9 10 10 9 9 9 8 9 9 8 9 9 9 9 10 10 11 11 13 15 15 10 7 4 6 8 9 9 10 11 12 11 11 10 11 11 11 10 7 0 2 11 13 8 6 8 7 9 9 9 8 9 10 10 9 9 10 10 10 10 10 10 10 10 10 10 10 10 10 10 10 11 11 11 11 11 11 11 11 nan
nan 10 10 10 10 9 9 9 9 9 9 9 9 9 9 9 9 9 9 9 11 13 13 12 13 14 13 9 6 4 6 9 9 8 9 12 13 13 11 10 9 9 8 8 6 4 9 16 15 10 5 3 3 4 7 8 7 8 10 10 9 9 10 10 10 10 10 10 10 10 10 10 10 10 10 11 11 11 11 11 11 11 11 11 11 nan
nan 10 9 10 10 10 10 9 9 9 8 9 9 10 10 10 10 10 9 10 12 13 12 12 13 15 13 10 7 5 7 9 9 8 9 13 13 13 11 8 8 8 8 9 9 10 13 13 10 8 2 -5 -2 2 8 10 8 9 10 9 9 9 10 10 10 10 10 10 10 10 10 10 11 11 11 11 11 11 11 11 11 11 12 12 12 nan
nan 10 9 9 9 9 9 10 10 10 10 9 10 10 10 9 9 9 9 11 12 12 10 10 11 13 12 10 8 6 7 9 9 8 9 11 12 12 10 7 7 8 9 11 11 11 11 10 9 7 -3 -8 -3 5 10 10 9 9 9 9 9 9 10 10 10 10 10 10 10 10 11 11 11 11 11 11 11 11 11 11 12 12 12 12 12 nan
nan 10 10 10 9 8 9 11 12 12 11 10 10 9 9 9 9 9 9 9 10 10 10 11 11 10 9 8 6 5 7 9 9 9 8 10 12 12 10 8 7 8 10 11 12 11 11 9 4 -1 -11 -9 2 8 10 10 9 9 9 9 10 10 10 10 10 10 11 10 10 11 11 11 11 11 11 11 11 11 12 12 12 12 12 12 12 nan
nan 9 10 10 9 9 9 10 10 11 11 11 11 9 9 10 10 10 8 8 9 10 10 11 10 10 9 7 6 6 7 9 10 8 8 10 11 11 9 7 8 9 11 12 13 12 10 6 -1 -6 -7 0 6 9 9 9 9 9 10 10 10 10 10 10 11 11 11 11 11 11 11 11 11 11 11 11 11 11 12 12 12 12 12 12 12 nan
nan 9 9 9 9 9 9 9 9 11 13 12 12 11 10 9 9 8 8 9 10 10 10 10 11 11 10 8 7 7 7 9 10 9 9 10 11 11 9 7 9 11 12 13 13 10 9 8 4 -0 1 4 5 6 8 8 9 9 10 10 10 10 10 11 11 11 11 11 11 11 11 11 11 11 11 11 11 11 11 12 12 12 12 13 14 nan
nan 8 9 9 8 8 8 8 8 10 14 13 13 12 11 9 8 7 8 10 9 10 11 11 11 11 9 7 6 7 8 9 9 9 10 10 10 10 9 9 10 9 10 11 11 9 9 10 9 4 -2 -3 1 4 6 8 8 9 9 10 10 10 11 11 11 12 11 11 11 11 11 11 11 11 11 11 11 11 11 12 12 12 12 15 16 nan
nan 8 8 9 9 7 8 9 9 11 13 12 12 12 11 11 8 7 7 9 9 9 10 11 11 11 9 8 8 9 11 10 9 7 7 7 7 9 10 9 9 9 10 10 10 9 10 11 8 2 -4 -4 1 4 6 7 8 9 9 10 10 11 11 11 12 12 11 11 11 11 11 11 11 11 11 11 11 11 12 11 11 12 13 15 17 nan
nan 8 9 10 10 8 9 11 13 13 9 8 9 12 13 11 8 6 6 8 8 9 11 12 12 12 12 10 10 11 12 12 9 5 5 6 8 10 10 9 9 10 10 9 8 8 10 11 9 6 -1 -2 3 4 5 7 8 9 9 10 10 11 11 11 11 11 11 11 11 11 11 11 11 11 11 11 11 11 11 11 11 12 14 16 16 nan
nan 10 12 12 12 11 12 16 18 16 9 6 7 9 12 11 9 8 7 8 9 9 10 12 12 13 13 13 12 13 13 12 9 5 6 8 9 9 9 8 8 9 10 10 9 9 11 12 12 12 5 -2 0 1 3 6 7 8 9 10 10 10 11 11 11 11 11 11 11 11 11 11 11 11 11 11 11 11 11 11 11 13 15 16 15 nan
nan 14 14 13 12 14 16 19 23 25 18 10 8 8 10 11 11 12 12 11 10 9 10 10 10 12 12 13 14 14 13 11 9 6 7 9 8 10 11 9 9 9 9 10 10 11 12 12 13 14 8 -0 -4 -2 1 4 6 8 9 9 10 10 11 11 11 10 10 11 11 11 11 11 11 11 11 11 11 11 11 11 11 13 15 16 15 nan
nan 18 17 15 13 13 15 19 23 27 25 19 16 12 10 11 12 13 13 11 10 9 11 12 11 11 12 11 11 12 12 12 9 7 7 8 9 12 11 9 8 8 9 11 10 10 10 12 13 13 9 3 -3 -4 -2 2 5 7 8 9 9 10 10 10 10 10 10 10 11 11 11 11 11 10 11 11 11 11 10 10 12 14 17 18 16 nan
nan 16 15 14 13 12 13 14 14 15 18 20 21 21 18 14 10 9 10 9 9 10 12 12 11 10 11 10 10 10 12 12 10 7 6 7 10 11 10 7 7 8 11 13 11 9 11 14 13 12 10 7 1 -7 -6 2 5 7 8 9 9 10 10 10 10 9 10 10 11 11 11 10 10 10 10 11 11 11 10 11 13 16 20 21 20 nan
nan 9 9 9 8 7 8 9 10 9 10 12 15 22 24 17 11 9 9 10 10 10 10 10 10 10 10 9 10 12 13 11 9 7 7 9 11 11 8 7 8 9 13 14 13 13 17 17 15 12 9 6 3 -2 -2 3 7 8 8 8 8 9 9 9 9 10 10 11 11 10 10 10 10 10 10 10 10 10 10 11 16 21 25 25 23 nan
nan 3 2 2 3 4 6 6 5 5 7 9 12 18 22 18 12 10 10 10 11 10 9 9 10 11 10 10 12 14 13 9 7 7 9 12 12 10 7 7 8 10 13 15 17 19 20 17 14 10 5 3 6 7 6 6 10 11 7 5 8 9 8 8 9 10 10 11 10 10 10 10 9 9 10 10 10 10 9 13 21 29 27 20 16 nan
nan 2 1 -0 2 4 7 6 1 -2 1 6 10 16 20 17 12 11 11 12 12 11 10 9 10 10 10 11 14 15 12 8 6 6 10 13 12 9 7 8 9 10 13 15 16 16 16 15 11 7 2 3 9 12 10 10 12 12 6 5 8 5 3 6 9 11 11 11 10 10 9 9 9 9 9 9 9 9 9 15 27 33 25 14 11 nan
nan 7 7 5 6 7 8 8 4 0 -1 2 6 12 16 15 12 10 11 12 12 12 11 10 9 9 10 13 13 13 10 5 2 6 12 15 12 8 8 9 10 10 12 13 12 11 12 12 8 4 3 7 10 11 10 10 11 11 9 8 7 0 -2 5 10 12 11 10 9 9 9 9 9 9 9 9 9 8 8 15 26 32 23 12 11 nan
nan 11 11 11 11 9 8 8 8 7 5 5 5 6 10 12 13 13 11 10 10 10 11 10 9 9 11 12 11 10 8 2 -2 3 14 17 14 9 8 9 9 10 11 12 11 10 9 7 5 3 4 9 11 11 9 10 10 8 8 10 9 -1 -1 8 12 13 11 8 9 9 9 9 9 9 9 9 8 8 7 13 22 28 23 14 11 nan
nan 11 11 11 11 10 9 9 9 9 10 10 8 7 7 8 10 13 13 11 10 9 9 10 10 10 11 12 13 11 9 3 -3 -0 14 20 14 10 8 8 9 10 11 12 12 12 9 5 4 4 7 11 12 11 9 9 9 8 9 11 10 4 5 11 13 12 10 10 10 9 8 9 9 9 9 9 8 7 6 10 16 22 23 19 13 nan
nan 10 11 11 11 10 10 10 10 9 10 10 9 9 9 9 9 10 12 12 12 11 10 8 8 8 11 13 13 12 10 4 -3 1 14 20 14 9 7 9 10 11 12 12 12 13 11 6 6 6 8 11 12 12 10 8 8 10 10 10 10 8 9 11 11 9 9 12 13 10 9 9 7 8 9 7 7 6 5 7 11 14 20 21 16 nan
nan 9 10 11 11 11 11 11 11 10 10 9 8 8 10 11 10 9 10 11 11 12 12 10 8 7 8 9 10 10 9 4 -1 4 15 19 14 10 8 8 9 10 11 11 11 12 10 7 7 8 9 11 12 12 10 8 7 9 9 9 10 10 10 10 9 8 9 11 12 11 11 9 7 6 4 1 2 2 5 8 9 9 13 16 18 nan
nan 8 9 11 11 11 11 12 11 10 10 9 8 7 9 10 10 10 10 10 10 10 11 12 12 11 8 7 7 6 6 4 2 6 16 19 14 10 7 7 7 10 11 11 11 11 9 8 8 9 11 13 13 11 8 6 7 8 8 10 11 12 11 10 10 9 8 8 9 10 10 8 7 6 -0 -4 1 5 9 10 10 9 9 11 14 nan
nan 9 10 11 10 9 10 11 11 9 10 9 7 7 8 9 10 10 11 10 9 9 9 11 12 11 10 10 7 5 5 5 6 9 15 17 13 9 7 6 6 9 11 10 9 9 9 9 10 12 14 13 10 6 3 5 7 8 9 10 12 13 12 11 10 9 6 6 8 8 8 8 8 7 1 2 10 13 14 14 13 10 10 11 11 nan
nan 11 11 12 11 10 9 9 9 8 9 9 7 7 8 10 11 12 12 11 11 10 10 10 9 6 8 10 10 9 7 7 9 11 15 15 11 7 6 6 7 9 10 10 9 9 9 9 10 13 14 11 7 5 6 7 7 9 9 11 14 14 12 10 9 8 6 6 7 8 9 11 12 10 8 11 15 15 14 13 9 8 12 15 12 nan
nan 9 10 11 11 11 10 9 9 9 9 9 7 7 8 11 14 16 15 14 14 14 13 11 9 8 9 11 11 12 13 14 14 15 16 14 10 7 5 6 8 9 10 11 11 10 10 9 9 8 7 7 8 10 11 9 7 5 7 13 15 13 10 9 8 8 8 8 8 10 12 13 12 11 10 10 10 11 11 10 8 9 15 16 11 nan
nan 9 8 9 11 11 10 9 9 10 10 9 9 8 9 11 14 16 15 14 14 16 16 14 13 12 13 14 14 14 15 15 14 15 15 12 9 7 6 5 6 8 11 12 12 11 10 9 7 7 7 7 6 7 8 8 4 1 6 14 12 6 5 9 11 10 8 7 8 10 11 10 9 9 10 9 10 10 11 10 8 8 11 14 13 nan
nan 10 9 9 9 10 10 10 10 11 11 11 10 10 8 8 9 11 11 12 13 14 13 13 16 17 16 16 16 14 14 12 12 13 12 10 8 6 5 5 5 7 10 12 12 11 11 9 9 10 11 9 8 9 10 7 2 3 11 13 8 3 5 10 12 10 8 8 8 8 7 8 9 10 10 11 13 12 11 9 7 7 10 12 12 nan
nan 11 10 10 10 10 9 9 9 12 14 13 10 8 8 8 8 8 8 9 11 11 10 11 13 14 16 16 16 15 15 13 13 12 11 11 9 6 4 4 5 7 10 12 13 13 12 10 10 11 12 12 11 12 11 7 7 9 11 9 8 10 15 15 13 8 6 8 9 7 9 12 11 10 10 13 14 13 12 9 5 5 10 13 12 nan
nan 11 11 10 10 9 8 10 11 13 14 12 10 9 9 8 8 8 9 9 8 9 11 12 12 12 13 13 14 15 16 16 14 12 13 12 10 7 5 7 8 10 11 11 12 14 14 13 13 13 12 11 10 7 5 6 9 11 9 8 10 16 17 11 7 5 6 9 10 10 10 10 10 9 11 13 14 14 13 9 10 12 14 14 12 nan
nan 11 11 11 11 11 11 11 11 11 10 10 10 11 10 8 7 9 11 10 9 10 12 13 13 13 11 9 11 13 16 16 15 14 9 6 7 10 13 14 14 14 12 10 10 10 11 13 15 15 14 11 9 7 6 7 8 8 7 8 11 13 9 4 3 5 10 11 11 9 7 8 9 11 12 13 14 14 13 13 14 14 15 15 13 nan
nan 10 11 10 11 11 11 11 10 10 10 10 12 12 10 8 8 9 10 10 10 12 12 12 12 12 10 9 11 12 13 14 14 14 9 2 4 13 18 17 16 15 14 12 10 8 7 9 11 12 13 12 11 8 7 7 7 7 6 8 11 13 10 7 7 9 10 10 9 7 6 8 11 13 13 12 12 12 12 11 11 12 14 14 12 nan
nan 10 11 10 9 8 10 13 12 11 10 10 12 13 12 10 8 7 9 11 12 13 12 12 12 10 8 8 10 10 10 11 11 12 11 10 11 11 12 12 13 14 15 14 13 11 9 7 8 9 11 13 14 14 11 9 8 7 6 8 11 13 12 11 11 10 9 9 8 7 6 10 13 14 12 10 11 13 13 13 13 12 12 12 11 nan
nan 10 11 10 9 9 10 11 11 10 10 10 11 13 13 11 9 8 9 11 12 11 11 12 11 10 9 9 9 8 8 10 11 11 10 10 11 11 12 11 11 14 15 13 14 14 13 11 10 9 10 11 12 14 14 10 8 6 7 9 11 12 12 11 10 10 10 9 7 5 8 14 15 14 11 11 12 13 13 13 14 13 12 11 10 nan
nan 10 10 10 10 10 10 10 10 9 10 11 11 12 11 8 8 12 13 10 11 10 11 12 10 10 12 11 9 6 8 11 11 10 10 10 9 9 11 13 14 15 15 15 16 18 19 18 16 14 12 8 7 7 8 9 8 8 8 9 10 11 11 10 9 9 9 8 6 7 12 15 14 12 12 12 11 10 10 12 14 14 13 11 10 nan
nan 9 10 10 10 10 10 10 9 9 9 10 12 13 11 6 5 14 16 11 11 11 10 9 9 11 12 11 8 7 10 14 13 10 10 10 10 9 10 12 15 17 17 17 19 20 20 21 22 19 12 6 3 3 5 7 7 9 10 10 10 10 10 9 9 8 9 8 9 12 15 15 13 12 11 10 9 8 10 12 12 12 11 11 9 nan
nan 10 10 10 9 9 10 10 9 9 9 10 12 13 13 11 9 9 11 11 11 12 10 9 9 10 10 10 9 8 11 13 12 11 10 10 9 9 9 10 12 16 17 16 16 17 19 20 22 24 17 7 3 4 6 7 8 10 10 10 10 10 10 9 8 8 8 10 12 14 15 15 14 13 12 10 9 9 11 11 10 9 10 10 9 nan
nan nan nan nan nan nan nan nan nan nan nan nan nan nan nan nan nan nan nan nan nan nan nan nan nan nan nan nan nan nan nan nan nan nan nan nan nan nan nan nan nan nan nan nan nan nan nan nan nan nan nan nan nan nan nan nan nan nan nan nan nan nan nan nan nan nan nan nan nan nan nan nan nan nan nan nan nan nan nan nan nan nan nan nan nan nan
CAPE
nan nan nan nan nan nan nan nan nan nan nan nan nan nan nan nan nan nan nan nan nan nan nan nan nan nan nan nan 18 18 54 71 77 77 77 79 81 81 89 96 96 103 96 88 88 81 70 69 69 70 86 115 148 148 183 189 189 169 149 139 139 128 128 136 136 151 173 195 217 217 227 244 270 270 313 345 355 355 331 279 279 279 302 318 318 300
nan nan nan nan nan nan nan nan nan nan nan nan nan nan nan nan nan nan nan nan nan nan nan nan nan nan nan nan 15 15 48 61 63 63 67 73 81 81 86 88 88 86 77 67 67 63 59 60 60 71 95 119 133 133 140 129 129 116 104 103 103 92 96 103 103 124 153 184 207 207 230 254 290 290 321 345 339 339 315 271 271 281 302 321 321 302
nan nan nan nan nan nan nan nan nan nan nan nan nan nan nan nan nan nan nan nan nan nan nan nan nan nan nan nan 22 22 38 49 54 54 59 65 73 73 74 71 71 67 60 56 56 53 55 65 65 75 96 108 108 108 98 91 91 84 79 73 73 72 76 79 79 96 127 168 201 201 232 265 307 307 316 319 313 313 288 281 281 305 338 332 332 323
nan nan nan nan nan nan nan nan nan nan nan nan nan nan nan nan nan nan nan nan nan nan nan nan nan nan nan nan 5 5 34 40 45 45 50 57 57 57 57 53 53 50 50 50 50 52 59 70 70 81 86 87 83 83 74 71 71 63 60 60 60 61 67 74 74 86 113 147 186 186 221 268 286 286 281 260 257 257 260 274 274 319 336 344 344 323
nan nan nan nan nan nan nan nan nan nan nan nan nan nan nan nan nan nan nan nan nan nan nan nan nan nan nan nan 2 2 29 31 33 33 39 43 43 43 41 41 41 41 43 48 48 58 65 72 72 77 71 70 62 62 62 56 56 51 49 49 49 56 64 74 74 91 114 143 178 178 204 236 255 255 247 232 230 230 225 250 250 283 297 305 305 306
nan nan nan nan nan nan nan nan nan nan nan nan nan nan nan nan nan nan nan nan nan nan nan nan nan nan nan nan 7 7 26 22 22 22 26 29 29 29 29 35 35 36 44 51 51 57 67 67 67 64 58 56 55 55 53 49 49 45 42 46 46 53 66 83 83 103 125 144 157 157 178 195 213 213 205 198 201 201 196 214 214 258 262 273 273 281
nan nan nan nan nan nan nan nan nan nan nan nan nan nan nan nan nan nan nan nan nan nan nan nan nan nan nan nan 17 17 15 7 7 7 8 12 14 14 18 23 23 33 40 53 53 60 60 54 54 50 47 49 50 50 47 44 44 43 44 50 50 60 71 91 91 110 127 131 142 142 151 161 165 165 168 166 165 165 175 196 196 233 253 259 259 273
nan nan nan nan nan nan nan nan nan nan nan nan nan nan nan nan nan nan nan nan nan nan nan nan nan nan nan nan nan nan nan nan nan nan nan nan 0 0 3 11 11 17 28 36 36 44 41 42 42 45 45 46 45 45 44 44 44 44 54 64 64 72 81 95 95 99 100 102 103 103 105 107 108 108 115 121 123 123 133 140 140 154 184 209 209 231
nan nan nan nan nan nan nan nan nan nan nan nan nan nan nan nan nan nan nan nan nan nan nan nan nan nan nan nan nan nan nan nan nan nan nan nan nan nan 1 8 8 15 26 33 33 40 40 40 40 41 44 44 43 43 42 42 42 46 56 68 68 74 78 80 80 83 86 90 91 91 95 96 98 98 104 109 111 111 112 113 113 125 139 168 168 186
nan nan nan nan nan nan nan 0 nan nan nan nan nan nan nan nan 4 4 2 nan nan nan 1 nan nan nan nan nan nan nan nan nan nan nan 0 nan 1 1 0 1 1 3 21 32 32 38 38 39 39 39 39 40 38 38 39 41 41 48 58 69 69 71 69 74 74 75 77 81 85 85 85 89 90 90 92 94 98 98 99 100 100 104 118 141 141 157
nan nan nan nan nan nan nan nan nan nan nan nan nan nan nan nan 9 9 5 1 1 1 2 nan nan nan nan nan nan nan nan nan nan nan nan nan nan nan nan 0 0 5 17 23 23 28 30 34 34 36 34 33 32 32 34 38 38 48 56 63 63 65 60 66 66 69 74 77 80 80 83 84 85 85 88 89 90 90 91 96 96 101 110 123 123 149
nan nan nan nan nan nan 1 nan nan nan nan nan 1 1 10 8 12 12 5 2 2 1 0 nan nan nan nan nan nan nan nan nan nan nan nan nan nan nan nan nan nan nan 0 5 5 9 21 28 28 28 24 19 26 26 32 34 34 48 52 55 55 56 57 63 63 66 69 75 74 74 77 80 81 81 85 90 90 90 94 100 100 108 113 121 121 141
nan nan nan nan nan 3 4 2 2 2 12 14 14 14 12 14 8 8 1 1 1 1 0 nan nan nan nan nan nan nan nan nan nan nan nan nan nan nan nan nan nan nan nan nan nan nan 4 16 16 13 14 11 22 22 33 40 40 47 50 51 51 55 55 59 59 61 63 66 67 67 72 75 78 78 86 88 96 96 97 104 104 109 119 133 133 148
nan nan nan nan nan 0 5 7 11 11 13 17 20 20 19 8 0 0 nan nan nan 0 0 nan nan nan nan nan nan nan nan nan nan nan nan nan nan nan nan nan nan nan nan nan nan nan nan nan nan nan 1 4 14 14 32 42 42 46 46 45 45 49 51 56 56 54 60 59 61 61 65 71 73 73 80 92 97 97 102 107 107 113 126 135 135 151
3 1 0 0 0 1 6 11 14 14 18 21 22 22 10 0 nan nan nan 0 0 0 nan nan nan nan nan nan nan nan nan nan nan nan nan nan nan nan nan nan nan nan nan nan nan nan nan nan nan nan nan nan 6 6 25 32 32 43 40 41 41 44 50 48 48 50 53 53 60 60 63 66 74 74 81 89 93 93 98 104 104 115 125 138 138 155
3 2 2 3 3 4 8 12 17 17 21 22 18 18 0 nan nan nan nan nan nan nan nan nan nan nan nan nan nan nan nan nan nan nan nan nan nan nan nan nan nan nan nan nan nan nan nan nan nan nan nan 0 24 24 30 34 34 36 37 38 38 41 45 47 47 49 50 53 57 57 63 67 70 70 79 83 92 92 97 103 103 114 124 138 138 161
3 2 3 5 5 5 7 12 26 26 27 20 13 13 nan nan nan nan nan nan nan nan nan nan nan nan nan nan nan nan nan nan nan nan nan nan nan nan nan nan nan nan nan nan nan nan nan nan nan nan nan 10 27 27 28 29 29 31 34 38 38 40 44 46 46 46 48 48 55 55 61 65 69 69 75 83 88 88 98 104 104 115 130 148 148 160
2 3 4 7 7 6 5 10 22 22 27 18 0 0 nan nan nan nan nan nan nan 0 0 nan nan nan nan nan nan nan nan nan nan nan nan nan nan nan nan nan nan nan nan nan nan nan nan nan nan nan nan 16 23 23 26 28 28 31 35 38 38 39 40 40 40 41 42 46 50 50 54 62 69 69 75 80 84 84 94 104 104 117 128 147 147 167
2 5 6 8 8 7 5 14 30 30 29 12 nan nan nan nan nan nan nan 1 1 0 0 0 0 nan nan nan nan nan nan nan nan nan nan nan nan nan nan nan nan nan nan nan nan nan nan nan nan nan 2 11 19 19 21 23 23 27 30 33 33 34 34 36 36 38 39 43 46 46 53 60 68 68 75 79 87 87 93 99 99 115 121 132 132 157
3 7 12 11 11 8 7 14 33 33 22 6 nan nan nan nan nan nan nan 0 0 0 0 nan nan nan nan nan nan nan nan nan nan nan nan nan nan nan nan nan nan nan nan nan nan nan nan nan nan nan nan 5 14 14 16 19 19 24 28 30 30 30 32 32 32 35 37 40 45 45 50 57 65 65 71 79 81 81 90 99 99 109 115 134 134 147
5 11 13 11 11 8 7 10 35 35 20 3 1 1 nan nan nan nan nan nan nan nan nan nan nan nan nan nan nan nan nan nan nan nan nan nan nan nan nan nan nan nan nan nan nan nan nan nan nan nan nan 3 10 10 11 15 15 22 26 28 28 30 31 31 31 33 36 39 44 44 49 54 61 61 71 75 83 83 88 95 95 108 121 137 137 149
2 13 5 4 4 7 15 4 25 25 7 0 nan nan nan nan nan nan 0 nan nan nan nan nan nan nan nan nan nan nan nan nan nan nan nan nan nan nan nan nan nan nan nan nan nan nan nan nan nan nan nan 3 4 4 6 11 11 18 24 26 26 28 28 27 27 31 38 40 44 44 47 53 60 60 67 74 79 79 88 93 93 109 126 141 141 131
nan 4 3 2 2 5 13 0 1 1 4 nan nan nan nan nan nan nan nan nan nan nan nan nan nan nan nan nan nan nan nan nan nan nan nan nan nan nan nan nan nan nan nan nan nan nan nan nan nan nan nan 1 1 1 3 9 9 15 20 22 22 24 24 26 26 29 34 39 42 42 44 50 58 58 63 70 73 73 77 93 93 110 123 129 129 113
nan nan 0 0 0 3 5 nan nan nan 1 nan nan nan nan nan nan nan nan nan nan nan nan nan nan nan nan nan nan nan nan nan nan nan nan nan nan nan nan nan nan nan nan nan nan nan nan nan nan nan nan nan nan nan 1 7 7 14 17 19 19 20 23 24 24 28 31 37 40 40 43 48 53 53 58 65 67 67 76 84 84 106 119 113 113 88
1 1 7 10 10 8 nan nan nan nan 1 nan nan nan nan nan nan nan nan nan nan nan nan nan nan nan nan nan nan nan nan nan nan nan nan nan nan nan nan nan nan nan nan nan nan nan nan nan nan nan nan nan nan nan 0 5 5 10 13 16 16 18 19 22 22 24 28 32 36 36 40 45 50 50 54 58 62 62 68 80 80 98 104 91 91 63
7 12 13 15 15 34 35 54 83 83 15 0 nan nan nan nan nan nan nan nan nan nan nan nan nan nan nan nan nan nan nan nan nan nan nan 0 nan nan nan nan nan nan nan nan nan nan nan nan nan nan nan nan nan nan nan 3 3 7 9 11 11 13 16 19 19 22 26 27 31 31 35 42 47 47 50 52 59 59 68 79 79 92 94 74 74 50
25 29 36 42 42 48 59 67 82 82 94 62 4 4 nan nan nan nan nan nan nan nan nan nan nan nan nan nan nan nan nan nan nan nan nan nan nan nan nan nan nan nan nan nan nan nan nan nan nan nan nan nan nan nan nan 1 1 4 6 7 7 9 12 16 16 19 22 27 29 29 33 37 45 45 46 49 54 54 63 78 78 80 75 59 59 37
24 30 35 41 41 42 45 57 75 75 82 79 69 69 nan nan nan nan nan nan nan nan nan nan nan nan nan nan nan nan nan nan nan nan nan nan nan nan nan nan nan nan nan nan nan nan nan nan nan nan nan nan nan nan nan 0 0 1 3 4 4 6 9 13 13 18 19 22 27 27 30 34 39 39 43 46 51 51 63 69 69 75 66 35 35 5
5 10 19 27 27 23 19 22 67 67 80 72 60 60 5 nan nan nan nan nan nan nan nan nan nan nan nan nan nan nan nan nan nan nan nan nan nan nan nan nan nan nan nan nan nan nan nan nan nan nan nan nan nan nan nan nan nan nan 1 2 2 3 6 10 10 15 17 19 23 23 28 32 36 36 39 44 48 48 58 70 70 71 54 22 22 4
nan nan nan 1 1 1 0 nan 20 20 67 67 51 51 26 4 1 1 1 2 2 nan nan nan nan nan nan nan nan nan nan nan nan nan nan 0 nan nan nan nan nan nan nan nan nan nan nan nan nan nan nan nan nan nan nan nan nan nan nan 0 0 1 4 9 9 12 14 17 21 21 24 30 31 31 34 39 46 46 54 68 68 57 29 9 9 5
nan nan nan nan nan nan nan nan nan nan 20 53 35 35 8 2 3 3 1 1 1 0 nan nan nan nan nan nan nan nan nan nan nan nan 0 1 nan nan nan nan nan nan nan nan nan nan nan nan nan nan nan nan nan nan nan nan nan nan nan nan nan nan 2 7 7 9 11 15 19 19 22 24 29 29 31 35 41 41 52 62 62 52 20 11 11 6
nan nan nan nan nan nan nan nan nan nan nan nan nan nan 0 nan nan nan nan nan nan 1 1 0 0 0 0 0 nan nan nan nan nan nan 8 nan nan nan nan nan nan nan nan 0 0 0 nan nan nan nan nan nan nan nan nan nan nan nan nan nan nan nan nan 1 1 1 3 9 13 13 16 18 19 19 22 26 33 33 43 50 50 52 22 9 9 10
nan nan nan nan nan nan nan nan nan nan nan nan nan nan nan nan nan nan nan nan nan nan 0 0 0 0 nan nan nan nan nan nan nan nan 9 nan nan nan nan nan nan nan nan nan nan 0 nan nan nan nan nan nan nan nan nan nan nan nan nan nan nan nan nan nan nan nan 0 2 3 3 9 11 16 16 17 20 28 28 37 43 43 49 43 8 8 9
nan nan nan nan nan nan nan nan nan nan nan nan nan nan nan nan nan nan nan nan nan nan nan nan nan 0 0 0 nan nan nan nan nan nan 2 nan nan nan nan nan nan nan nan nan nan nan nan nan nan nan nan nan nan nan nan nan nan nan nan nan nan nan nan nan nan nan nan nan nan nan nan nan 8 8 9 16 23 23 32 37 37 42 42 23 23 12
nan nan nan nan nan nan nan nan nan nan nan nan nan nan nan nan nan nan nan nan nan nan nan nan nan nan nan 0 nan nan nan nan nan nan 1 nan nan nan nan nan nan 0 nan nan nan nan nan nan nan 0 nan nan nan nan nan nan nan nan nan nan nan nan nan nan nan nan nan nan nan nan nan nan nan nan 1 9 17 17 24 25 25 31 34 39 39 24
nan nan nan nan nan nan nan nan nan nan nan nan nan nan nan nan nan nan nan nan nan nan nan nan nan nan nan nan nan nan nan nan nan nan nan nan nan nan nan nan nan 1 0 nan nan nan nan nan nan nan nan nan nan nan nan nan nan nan nan nan nan nan nan nan nan nan nan nan nan nan nan nan nan nan 0 10 14 14 15 15 15 19 24 28 28 28
nan nan nan nan nan nan 0 0 nan nan nan nan nan nan nan nan nan nan nan nan nan nan nan nan nan nan nan nan nan nan nan nan nan nan nan nan nan nan nan nan nan 2 0 0 0 nan nan nan nan nan nan nan nan nan nan nan nan nan nan nan nan nan nan nan nan nan nan nan nan nan nan nan 0 0 1 9 7 7 8 9 9 10 16 20 20 22
nan nan nan nan nan nan nan 1 5 5 6 nan nan nan nan nan nan nan nan nan nan nan nan nan nan nan nan nan nan nan nan nan nan nan nan nan nan nan nan nan nan nan 0 nan nan nan nan nan nan nan nan nan nan nan nan nan nan nan nan nan nan nan nan nan nan nan nan nan 0 0 1 0 nan nan nan 0 nan nan nan nan nan 2 6 9 9 17
nan nan nan nan nan nan nan 0 2 2 nan nan nan nan nan nan nan nan nan nan nan nan nan nan nan nan nan nan nan nan nan nan nan nan nan nan nan nan nan nan nan nan nan nan nan nan nan nan nan nan nan nan nan nan nan nan nan nan nan nan nan nan nan nan nan nan nan nan 0 0 0 nan nan nan nan nan nan nan nan nan nan nan nan nan nan 4
nan nan nan 1 1 nan nan 0 nan nan nan nan nan nan nan nan nan nan nan nan nan nan nan nan nan nan nan nan nan nan nan nan nan nan nan nan nan nan nan nan nan nan nan nan nan nan nan nan nan nan nan nan nan nan nan nan nan nan nan nan nan nan nan nan nan nan nan nan nan nan nan nan nan nan nan nan nan nan nan nan nan nan nan nan nan nan
nan nan nan nan nan nan 0 nan nan nan nan nan nan nan nan nan nan nan nan nan nan nan nan nan nan nan nan nan nan nan nan nan nan nan nan nan nan nan nan nan nan nan nan nan nan nan nan nan nan nan nan nan nan nan nan nan nan nan 2 nan nan nan nan nan nan nan nan nan nan nan nan 0 1 1 nan 0 nan nan nan nan nan nan nan nan nan nan
1 nan nan nan nan nan nan nan nan nan 2 nan nan nan nan nan nan nan nan nan nan nan nan nan nan nan nan nan nan nan nan nan nan nan nan nan nan nan nan nan nan nan nan nan nan nan nan nan nan nan nan nan nan nan nan nan nan nan nan nan nan nan nan nan nan nan nan nan nan nan 2 0 nan nan 0 nan nan nan nan nan nan nan nan nan nan nan
nan nan nan nan nan nan nan nan nan nan 0 nan nan nan nan nan nan nan nan nan nan nan nan nan nan nan nan nan nan nan nan nan nan nan nan nan nan nan nan nan nan nan nan nan nan nan nan nan nan nan nan nan nan nan nan nan nan nan nan 0 0 0 nan nan nan nan nan nan nan nan nan nan nan nan nan nan nan nan nan nan nan 2 0 nan nan nan
nan nan nan nan nan nan nan nan nan nan nan 0 nan nan nan nan nan nan nan nan nan nan nan nan nan nan nan nan nan nan nan nan nan nan nan nan nan nan nan nan nan nan nan nan nan nan nan nan nan nan nan nan nan nan nan nan nan nan nan nan nan nan nan nan nan nan nan nan nan nan nan nan nan nan nan nan nan nan nan nan nan nan nan nan nan nan
nan nan nan 0 0 nan nan nan nan nan nan 0 nan nan nan nan nan nan nan nan nan nan nan nan nan nan nan nan nan nan nan nan nan nan nan nan 2 2 nan nan nan nan nan nan nan nan nan nan nan nan nan nan nan nan nan nan nan nan nan 0 0 0 nan nan nan nan nan nan nan nan nan nan nan nan nan nan nan nan nan nan nan nan nan nan nan nan
nan nan nan nan nan nan 1 nan nan nan nan 0 nan nan nan nan nan nan nan nan nan nan nan nan nan nan nan nan nan nan nan nan nan nan nan nan nan nan nan nan nan nan nan nan nan nan nan nan nan nan nan nan nan nan nan nan nan nan nan nan nan nan nan nan nan nan nan nan nan nan nan nan nan nan nan nan nan nan nan nan nan nan nan nan nan nan
nan nan nan nan nan 0 nan nan nan nan nan 0 nan nan nan nan nan nan nan nan nan nan nan nan nan nan nan nan nan nan nan nan nan nan nan nan nan nan nan nan nan nan nan nan nan nan nan nan nan nan nan nan nan nan nan nan nan nan nan nan nan nan nan nan nan nan nan nan nan nan nan nan nan nan nan nan nan nan nan nan nan nan nan nan nan nan
nan 0 nan 0 0 0 0 0 0 0 0 nan nan nan nan nan nan nan nan nan nan nan nan nan nan nan nan nan nan nan nan nan nan nan nan nan nan nan nan nan nan nan nan nan nan nan nan nan nan nan nan nan nan nan nan nan nan nan nan nan nan nan nan nan nan nan nan nan nan nan nan nan nan nan nan nan nan nan nan nan nan nan nan nan nan nan
nan nan 0 0 0 0 nan 0 0 0 0 0 nan nan nan nan 0 0 nan nan nan nan nan nan nan nan nan nan nan nan 0 nan nan nan nan nan nan nan nan nan nan nan nan nan nan nan nan nan nan nan nan nan nan nan nan nan nan nan nan nan nan nan nan nan nan nan nan nan nan nan nan nan nan nan 0 0 nan nan nan nan nan nan nan nan nan nan
nan nan 0 0 0 0 0 0 0 0 0 0 0 0 nan nan nan nan nan nan nan nan nan nan nan nan nan nan nan nan nan nan nan nan nan nan nan nan nan nan nan nan nan nan nan nan nan nan nan nan nan nan nan nan nan nan nan nan nan nan nan nan nan nan nan nan nan 0 nan nan nan 0 1 1 2 2 1 1 nan nan nan nan nan nan nan nan
nan nan nan nan nan 0 0 0 1 1 0 0 0 0 nan nan nan nan nan nan nan nan nan nan nan nan nan nan nan nan nan nan nan nan nan nan nan nan nan nan nan nan nan nan nan nan nan nan nan nan nan nan nan nan nan nan nan nan nan nan nan nan 0 nan nan 0 4 2 1 1 0 1 2 2 3 2 2 2 0 0 0 nan nan nan nan nan